Regional Weather Roundup
Issued by NWS

Home | Current Version | Previous Version | Graphics & Text | Print | Product List | Glossary Off
Versions: 1 2 3 4 5 6 7 8 9 10 11 12 13 14 15 16 17 18 19 20 21 22 23 24 25 26 27 28 29 30 31 32 33 34 35 36 37 38 39 40 41 42 43 44 45 46 47 48 49 50

000
ASUS43 KMPX 062010
RWRMN
WEATHER ROUNDUP FOR MINNESOTA
NATIONAL WEATHER SERVICE TWIN CITIES/CHANHASSEN MN
300 PM CDT FRI MAY 06 2016


NOTE: "FAIR" INDICATES FEW OR NO CLOUDS BELOW 12,000 FEET WITH NO
SIGNIFICANT WEATHER AND/OR OBSTRUCTIONS TO VISIBILITY. N/A MEANS
CURRENT SKY AND/OR WEATHER CONDITIONS ARE NOT AVAILABLE.

MNZ060>063-068>070-062100-
   Twin Cities Metro

CITY           SKY/WX    TMP DP  RH WIND       PRES   REMARKS
TWIN CITIES    MOSUNNY   90  46  21 SW20G30   29.72F
ST PAUL        SUNNY     88  49  25 SW14G24   29.73F
CRYSTAL        SUNNY     92  46  20 SW17G26   29.71F
BLAINE         MOSUNNY   91  45  19 SW22G28   29.72F
EDEN PRAIRIE   SUNNY     92  45  19 SW17G28   29.71F
SOUTH ST PAUL  SUNNY     89  45  21 SW18G25   29.73F
LAKE ELMO      FAIR      88  52  29 W16G24    29.75F
$$
MNZ001>005-007-008-013>017-022>024-027-028-062100-
   Northwest Minnesota

CITY           SKY/WX    TMP DP  RH WIND       PRES   REMARKS
BEMIDJI        CLOUDY    79  49  34 NW21G28   29.76R
HALLOCK        CLOUDY    64  30  27 N20G30    29.92R
ROSEAU         CLOUDY    64  37  36 N23       29.83R
WARROAD        CLOUDY    64  45  48 NW16G23   29.83R
THIEF RVR FALL SUNNY     70  39  32 NW23G29   29.88R
CROOKSTON      SUNNY     73  43  33 N25G36    29.87R
FOSSTON        CLOUDY    73  41  31 NW22G33   29.84R
DETROIT LAKES  MOSUNNY   77  45  31 N20G25    29.80S
MOORHEAD       MOSUNNY   75  41  29 N24G36    29.82R
PARK RAPIDS    SUNNY     88  44  21 NW24G32   29.72R
MAHNOMEN       FAIR      74  46  36 N24       29.80S
$$
MNZ006-009>011-018-025>026-062100-
   North Central Minnesota

CITY           SKY/WX    TMP DP  RH WIND       PRES   REMARKS
BAUDETTE       PTSUNNY   65  43  44 NW21G29   29.79R
FLAG ISLAND    LGT RAIN  61  43  51 N23       29.80S
INTL FALLS     CLOUDY    73  47  39 N21G30    29.69R HAZE
WASKISH        SUNNY     72  46  40 NW17G25   29.77R
BIG FORK       MOSUNNY   81  45  28 NW5       29.68F
LONGVILLE      MOSUNNY   88  43  20 SW9G18    29.69F
GRAND RAPIDS   CLOUDY    84  46  26 W14G20    29.69F
CRANE LAKE     MOSUNNY   82  43  24 N12G21    29.64S
ORR            CLOUDY    88  39  18 NW16G23   29.63S
COOK           CLOUDY    88  46  23 NW18G28   29.64F
WALKER         FAIR      85  49  27 NW20G32   29.71R
$$
MNZ012-019>021-037-062100-
   Northeast Minnesota

CITY           SKY/WX    TMP DP  RH WIND       PRES   REMARKS
DULUTH         MOSUNNY   91  44  19 W21G28    29.66F
ELY            CLOUDY    86  39  19 W9G18     29.63F
HIBBING        CLOUDY    85  43  22 NW14      29.66S
EVELETH        CLOUDY    86  36  16 W13G18    29.66F
DULUTH HARBOR  MOSUNNY   90  43  19 SW17G23   29.62F
TWO HARBORS    MOSUNNY   93  55  27 SW22      29.60F HX  91
SILVER BAY     TSTM      79  54  41 CALM      29.61S
GRAND MARAIS     N/A     51  38  60 E3        29.60F
G MARAIS ARPRT MOSUNNY   82  39  21 SW9G18    29.64F
$$
MNZ029>031-032-039>041-046>048-054>057-064-062100-
   West Central Minnesota

CITY           SKY/WX    TMP DP  RH WIND       PRES   REMARKS
FERGUS FALLS   SUNNY     81  46  30 N22G33    29.72R
WHEATON        SUNNY     91  55  29 W15G24    29.74F
MORRIS         SUNNY     91  46  21 NW17G23   29.72F
ALEXANDRIA     SUNNY     86  52  30 W6        29.75F
ELBOW LAKE     FAIR      88  51  27 NW20      29.74S
WADENA         SUNNY     86  52  30 W12G17    29.73S
GLENWOOD       SUNNY     84  52  32 W10       29.75F
APPLETON       SUNNY     90  46  22 W12G17    29.73F
BENSON         SUNNY     90  45  20 N9        29.73F
ORTONVILLE     SUNNY     90  45  20 NW10G17   29.74F
MADISON        SUNNY     88  46  23 NW13G18   29.74F
WILLMAR        FAIR      88  52  29 NW14G20   29.74F
$$
MNZ033>034-036-042>043-049>051-058-059-062100-
   Central Minnesota

CITY           SKY/WX    TMP DP  RH WIND       PRES   REMARKS
ST CLOUD       SUNNY     87  51  28 W15G23    29.72F
SAUK CENTRE      N/A     83  54  36 NW9       29.74F
PAYNESVILLE    SUNNY     87  48  26 W12G18    29.74S
AITKIN         SUNNY     91  41  17 SW12G20   29.68S
PINE RIVER     SUNNY     88  54  31 W8        29.73F
BRAINERD       SUNNY     88  51  28 SW14      29.70F
STAPLES        SUNNY     88  48  25 W8        29.71F
LONG PRAIRIE   FAIR      82  54  36 W8        29.74F
LITTLE FALLS   MOSUNNY   84  46  26 SW5       29.73F
LITCHFIELD     SUNNY     90  52  27 W14G23    29.72S
BUFFALO        SUNNY     90  49  24 SW9G20    29.72F
MAPLE LAKE     SUNNY     89  53  29 W12G18    29.72F
HUTCHINSON     CLOUDY    92  53  26 W21G29    29.72F
$$
MNZ037-044-045-052-053-062100-
   East Central Minnesota

CITY           SKY/WX    TMP DP  RH WIND       PRES   REMARKS
PRINCETON      SUNNY     90  50  25 SW9G17    29.71F
MORA           MOSUNNY   86  52  30 W12       29.72F
CAMBRIDGE        N/A     91  64  40 S13G21    29.69F HX  93
RUSH CITY      MOSUNNY   85  50  29 SW14      29.72F
MOOSE LAKE     MOSUNNY   90  50  25 W10       29.66F
HINCKLEY       FAIR      86  54  32 SW15G22   29.71F
CLOQUET        SUNNY     90  36  14 W16G25    29.67F
MCGREGOR       SUNNY     86  50  28 SW14G21   29.69F
$$
MNZ071>073-080-081-089-090-097-098-062100-
   Southwest Minnesota

CITY           SKY/WX    TMP DP  RH WIND       PRES   REMARKS
MONTEVIDEO     MOSUNNY   90  52  27 N15G21    29.76S
GRANITE FALLS  MOSUNNY   93  52  25 W21G30    29.76S HX  90
CANBY          SUNNY     89  55  30 NW16      29.77F
MARSHALL       MOSUNNY   90  52  27 NW16G32   29.76S
REDWOOD FALLS  SUNNY     89  49  25 W21G32    29.73F
OLIVIA         SUNNY     82  46  28 NW18G30   29.73S
PIPESTONE      MOSUNNY   84  43  23 W24G31    29.83S
WINDOM         SUNNY     88  43  20 SW25G33   29.80F
WORTHINGTON    SUNNY     87  49  26 SW21G29   29.84S
JACKSON        SUNNY     88  34  14 SW21G32   29.84F
TRACY          MOSUNNY   89  48  24 W15G26    29.78S
SLAYTON        MOSUNNY   86  47  25 SW25G33   29.82F
$$
MNZ065>067-074>077-082>085-091>093-062100-
   South Central Minnesota

CITY           SKY/WX    TMP DP  RH WIND       PRES   REMARKS
MANKATO        SUNNY     90  43  19 SW24G37   29.76F
NEW ULM        SUNNY     90  45  20 SW29G37   29.74F
ST JAMES       SUNNY     84  39  20 SW26G36   29.78F
FAIRMONT       SUNNY     88  36  15 W23G30    29.82F
GLENCOE        SUNNY     91  52  26 SW17G30   29.72F
FARIBAULT      SUNNY     90  46  22 SW15G25   29.77F
OWATONNA       SUNNY     90  37  15 SW25      29.80F
WASECA         SUNNY     90  45  20 SW28      29.81F
ALBERT LEA     SUNNY     88  39  18 SW14G24   29.82F
$$
MNZ078>079-086>088-094>096-062100-
   Southeast Minnesota

CITY           SKY/WX    TMP DP  RH WIND       PRES   REMARKS
ROCHESTER      SUNNY     90  43  19 W18G33    29.82F
RED WING       SUNNY     91  45  19 SW15      29.74F
STANTON        SUNNY     88  44  21 SW20G29   29.75F
DODGE CENTER   SUNNY     88  41  19 SW26G33   29.81F
WINONA         MOSUNNY   90  39  17 W7G17     29.78F
AUSTIN         SUNNY     86  43  22 W21       29.83F
PRESTON        SUNNY     86  41  20 SW17G26   29.84F
$$
ABBREVIATIONS USED IN REMARKS
   TC - TEMPERATURES IN CELSIUS
  WCI - WIND CHILL INDEX
   HX - HEAT INDEX
  VSB - VISIBILITY
$$




USA.gov is the U.S. government's official web portal to all federal, state and local government web resources and services.